Michigan City, IN

8:43 PM CDT on March 29, 2017 (GMT -0500)
Michigan City Municipal

Weather History for KMGC - October, 2012

Change the Weather History Date:

Wednesday, October 3, 2012

  Actual Average (KSBN) Record (KSBN)
Temperature  
Mean Temperature 57 °F -  
Max Temperature 59 °F 68 °F 88 °F (1953)
Min Temperature 55 °F 48 °F 28 °F (1974)
Degree Days  
Heating Degree Days 8    
Growing Degree Days 7 (Base 50)    
Moisture  
Dew Point 56 °F    
Average Humidity 92    
Maximum Humidity 100    
Minimum Humidity 88    
Precipitation  
Precipitation 0.00 in - - ()
Sea Level Pressure  
Sea Level Pressure 29.97 in    
Wind  
Wind Speed 3 mph ()    
Max Wind Speed 9 mph    
Max Gust Speed -    
Visibility 6.1 miles    
Events Rain    
Averages and records for this station are not official NWS values.
T = Trace of Precipitation, MM = Missing Value Source: Averaged Metar Reports

Daily Weather History Graph

Daily Weather History Graph

Search for Another Location

Airport or City:

Trip Planner

Search our weather history database for the weather conditions in past years. The results will help you decide how hot, cold, wet, or windy it might be!

Date:

Astronomy

Oct. 03, 2012 Rise Set
Actual Time 6:46 AM CDT 6:24 PM CDT
Civil Twilight 6:19 AM CDT 6:52 PM CDT
Nautical Twilight 5:46 AM CDT 7:24 PM CDT
Astronomical Twilight 5:14 AM CDT 7:56 PM CDT
Moon 8:13 PM CDT (10/3) 10:12 AM CDT (10/3)
Length of Visible Light 12h 33m
Length of Day
11h 37m
Waning Gibbous, 88% of the Moon is Illuminated
Oct 3
Waning Gibbous
Oct 8
Last Quarter
Oct 15
New
Oct 21
First Quarter
Oct 29
Full

Hourly Weather History & Observations

Time (CDT) Temp. Dew Point Humidity Pressure Visibility Wind Dir Wind Speed Gust Speed Precip Events Conditions
12:15 AM 59.0 °F 55.4 °F 88% 29.90 in 10.0 mi Calm Calm - N/A   Drizzle
12:35 AM 59.0 °F 55.4 °F 88% 29.90 in 5.0 mi Calm Calm - N/A   Heavy Drizzle
12:55 AM 57.2 °F 55.4 °F 94% 29.90 in 5.0 mi Calm Calm - N/A   Heavy Drizzle
1:15 AM 57.2 °F 55.4 °F 94% 29.89 in 5.0 mi Calm Calm - N/A   Drizzle
1:35 AM 57.2 °F 55.4 °F 94% 29.90 in 5.0 mi Calm Calm - N/A   Overcast
1:55 AM 57.2 °F 55.4 °F 94% 29.90 in 5.0 mi Calm Calm - N/A Rain Rain
2:15 AM 57.2 °F 55.4 °F 94% 29.90 in 5.0 mi Calm Calm - N/A   Overcast
2:35 AM 57.2 °F 55.4 °F 94% 29.90 in 5.0 mi Calm Calm - N/A   Overcast
2:55 AM 57.2 °F 55.4 °F 94% 29.89 in 4.0 mi Calm Calm - N/A   Overcast
3:15 AM 57.2 °F 55.4 °F 94% 29.89 in 3.0 mi Calm Calm - N/A   Overcast
3:35 AM 59.0 °F 57.2 °F 94% 29.90 in 4.0 mi Calm Calm - N/A   Overcast
3:55 AM 57.2 °F 57.2 °F 100% 29.91 in 4.0 mi Calm Calm - N/A   Overcast
4:15 AM 59.0 °F 57.2 °F 94% 29.91 in 4.0 mi Calm Calm - N/A   Overcast
4:35 AM 59.0 °F 57.2 °F 94% 29.91 in 3.0 mi Calm Calm - N/A   Overcast
4:55 AM 59.0 °F 57.2 °F 94% 29.91 in 3.0 mi Calm Calm - N/A   Overcast
5:15 AM 59.0 °F 59.0 °F 100% 29.92 in 2.5 mi Calm Calm - N/A Rain Rain
5:35 AM 59.0 °F 57.2 °F 94% 29.92 in 4.0 mi South 4.6 mph - N/A   Drizzle
5:55 AM 59.0 °F 55.4 °F 88% 29.93 in 7.0 mi South 5.8 mph - N/A   Light Drizzle
6:35 AM 57.2 °F 55.4 °F 94% 29.94 in 7.0 mi South 5.8 mph - N/A   Light Drizzle
6:55 AM 57.2 °F 55.4 °F 94% 29.95 in 4.0 mi South 5.8 mph - N/A   Drizzle
7:15 AM 57.2 °F 55.4 °F 94% 29.95 in 3.0 mi South 4.6 mph - N/A   Light Drizzle
7:35 AM 57.2 °F 55.4 °F 94% 29.96 in 4.0 mi South 5.8 mph - N/A   Overcast
7:55 AM 59.0 °F 55.4 °F 88% 29.96 in 5.0 mi South 5.8 mph - N/A   Overcast
8:15 AM 59.0 °F 55.4 °F 88% 29.97 in 7.0 mi South 4.6 mph - N/A   Overcast
8:35 AM 59.0 °F 55.4 °F 88% 29.97 in 7.0 mi South 5.8 mph - N/A   Overcast
8:55 AM 59.0 °F 55.4 °F 88% 29.97 in 7.0 mi South 3.5 mph - N/A   Overcast
9:15 AM 59.0 °F 55.4 °F 88% 29.97 in 7.0 mi South 4.6 mph - N/A   Overcast
9:35 AM 57.2 °F 55.4 °F 94% 29.97 in 7.0 mi South 5.8 mph - N/A   Overcast
10:15 AM 59.0 °F 55.4 °F 88% 29.97 in 7.0 mi South 3.5 mph - N/A   Overcast
10:35 AM 59.0 °F 55.4 °F 88% 29.97 in 7.0 mi South 4.6 mph - N/A   Overcast
10:55 AM 59.0 °F 55.4 °F 88% 29.97 in 7.0 mi South 5.8 mph - N/A   Overcast
11:15 AM 59.0 °F 55.4 °F 88% 29.97 in 7.0 mi South 3.5 mph - N/A   Overcast
11:35 AM 59.0 °F 55.4 °F 88% 29.98 in 10.0 mi South 9.2 mph - N/A   Overcast
11:55 AM 59.0 °F 55.4 °F 88% 29.98 in 10.0 mi South 6.9 mph - N/A   Overcast
12:15 PM 59.0 °F 55.4 °F 88% 29.98 in 10.0 mi SSW 6.9 mph - N/A   Overcast
12:35 PM 59.0 °F 55.4 °F 88% 29.97 in 10.0 mi South 5.8 mph - N/A   Overcast
12:55 PM 59.0 °F 55.4 °F 88% 29.97 in 10.0 mi South 4.6 mph - N/A   Overcast
1:15 PM 59.0 °F 55.4 °F 88% 29.97 in 10.0 mi South 4.6 mph - N/A   Overcast
1:35 PM 59.0 °F 55.4 °F 88% 29.96 in 10.0 mi South 4.6 mph - N/A   Overcast
1:55 PM 59.0 °F 55.4 °F 88% 29.96 in 10.0 mi South 4.6 mph - N/A   Overcast
2:15 PM 59.0 °F 55.4 °F 88% 29.96 in 10.0 mi South 3.5 mph - N/A   Overcast
2:35 PM 59.0 °F 55.4 °F 88% 29.97 in 10.0 mi South 6.9 mph - N/A   Overcast
2:55 PM 59.0 °F 55.4 °F 88% 29.97 in 7.0 mi SSW 3.5 mph - N/A   Overcast
3:15 PM 59.0 °F 55.4 °F 88% 29.97 in 4.0 mi South 4.6 mph - N/A Rain Rain
3:35 PM 59.0 °F 57.2 °F 94% 29.97 in 2.5 mi South 3.5 mph - N/A   Heavy Drizzle
3:55 PM 59.0 °F 57.2 °F 94% 29.97 in 4.0 mi Calm Calm - N/A Rain Rain
4:15 PM 59.0 °F 59.0 °F 100% 29.97 in 5.0 mi SSW 4.6 mph - N/A   Light Drizzle
4:35 PM 59.0 °F 57.2 °F 94% 29.98 in 5.0 mi SSW 6.9 mph - N/A   Overcast
4:55 PM 59.0 °F 57.2 °F 94% 29.98 in 10.0 mi SSW 6.9 mph - N/A   Overcast
5:15 PM 59.0 °F 57.2 °F 94% 29.98 in 10.0 mi South 5.8 mph - N/A   Overcast
5:35 PM 59.0 °F 57.2 °F 94% 29.99 in 10.0 mi SSW 6.9 mph - N/A   Overcast
5:55 PM 59.0 °F 57.2 °F 94% 29.99 in 5.0 mi South 5.8 mph - N/A Rain Rain
6:15 PM 59.0 °F 57.2 °F 94% 29.99 in 7.0 mi SSW 8.1 mph - N/A   Overcast
6:35 PM 59.0 °F 55.4 °F 88% 30.00 in 7.0 mi South 5.8 mph - N/A   Overcast
6:55 PM 59.0 °F 55.4 °F 88% 30.01 in 5.0 mi South 5.8 mph - N/A   Overcast
7:15 PM 59.0 °F 55.4 °F 88% 30.01 in 5.0 mi SSW 5.8 mph - N/A   Light Drizzle
7:35 PM 59.0 °F 55.4 °F 88% 30.01 in 5.0 mi South 4.6 mph - N/A   Overcast
7:55 PM 59.0 °F 55.4 °F 88% 30.02 in 5.0 mi South 5.8 mph - N/A   Overcast
8:15 PM 57.2 °F 55.4 °F 94% 30.02 in 5.0 mi SSE 3.5 mph - N/A   Overcast
8:35 PM 59.0 °F 55.4 °F 88% 30.03 in 5.0 mi South 3.5 mph - N/A   Overcast
8:55 PM 59.0 °F 55.4 °F 88% 30.03 in 5.0 mi South 3.5 mph - N/A   Overcast
9:15 PM 57.2 °F 55.4 °F 94% 30.03 in 5.0 mi South 4.6 mph - N/A   Overcast
9:35 PM 59.0 °F 55.4 °F 88% 30.03 in 5.0 mi South 4.6 mph - N/A   Overcast
9:55 PM 57.2 °F 55.4 °F 94% 30.04 in 5.0 mi South 4.6 mph - N/A   Overcast
10:15 PM 57.2 °F 55.4 °F 94% 30.04 in 5.0 mi SSW 3.5 mph - N/A   Overcast
10:35 PM 57.2 °F 55.4 °F 94% 30.04 in 5.0 mi South 3.5 mph - N/A   Overcast
10:55 PM 57.2 °F 55.4 °F 94% 30.05 in 5.0 mi SSW 3.5 mph - N/A   Overcast
11:35 PM 55.4 °F 55.4 °F 100% 30.05 in 5.0 mi Calm Calm - N/A   Scattered Clouds
11:55 PM 55.4 °F 53.6 °F 94% 30.04 in 5.0 mi Calm Calm - N/A   Mostly Cloudy